Bookmark and Share
Track history (hours):
 

Jazan

Last reported at 2014-Apr-14 21:31 UTC. Time now 2014-Apr-16 07:38 UTC.
Position N 36°30' E 013°34'.

Length 306 m; draft 12.4 m.

Type: Ship (hazmat cat A). MMSI: 403559000.

NotesDate/timePositionNaut miles runAvg speedWind from/ knotsBaromVisibWave heightAir tempDewpointWater temp
2014-Apr-14 21:31N 36°30' E 013°34'48814.6
2014-Apr-13 12:06N 38°48' E 003°42'713.6
2014-Apr-13 11:33N 38°50' E 003°33'1313.4
2014-Apr-13 10:34N 38°52' E 003°16'1413.5
2014-Apr-13 09:33N 38°55' E 002°59'1313.3
2014-Apr-13 08:33N 38°60' E 002°43'1414.0
2014-Apr-13 07:33N 39°05' E 002°26'1414.0
2014-Apr-13 06:33N 39°10' E 002°09'1413.8
2014-Apr-13 05:33N 39°15' E 001°53'1413.6
2014-Apr-13 04:34N 39°19' E 001°36'1413.6
2014-Apr-13 03:33N 39°20' E 001°18'1413.7
2014-Apr-13 02:33N 39°21' E 001°01'31 1.1
2014-Apr-11 23:33N 39°52' E 001°01'1717.3
2014-Apr-11 22:33N 40°07' E 001°11'1817.6
2014-Apr-11 21:33N 40°22' E 001°22'1817.7
2014-Apr-11 20:33N 40°38' E 001°34'1817.8
2014-Apr-11 19:33N 40°52' E 001°47'1414.0
2014-Apr-11 18:33N 41°04' E 001°58'1313.1
2014-Apr-11 17:33N 41°14' E 002°08'4 3.5
2014-Apr-11 16:25N 41°18' E 002°09'0 0.0
2014-Apr-11 14:25N 41°18' E 002°09'0 0.0
2014-Apr-11 13:28N 41°18' E 002°09'0 0.0
2014-Apr-11 12:28N 41°18' E 002°09'0 0.0
2014-Apr-11 11:31N 41°18' E 002°09'0 0.0
2014-Apr-11 10:25N 41°18' E 002°09'0 0.0
2014-Apr-11 09:31N 41°18' E 002°09'0 0.0
2014-Apr-11 07:10N 41°18' E 002°09'0 0.0
2014-Apr-11 06:25N 41°18' E 002°09'0 0.0
2014-Apr-11 05:31N 41°18' E 002°09'1 1.2
2014-Apr-11 04:33N 41°19' E 002°10'6 5.7
2014-Apr-11 03:33N 41°17' E 002°17'10 9.7
2014-Apr-11 02:34N 41°20' E 002°29'1010.1
2014-Apr-11 01:33N 41°22' E 002°42'1010.1
2014-Apr-11 00:33N 41°25' E 002°55'10 9.8
2014-Apr-10 23:33N 41°28' E 003°08'1010.3
2014-Apr-10 22:33N 41°30' E 003°21'1010.4
2014-Apr-10 21:33N 41°33' E 003°34'10 9.8
2014-Apr-10 20:34N 41°38' E 003°46'4 3.7
2014-Apr-10 19:33N 41°42' E 003°48'1 0.5
2014-Apr-10 18:33N 41°41' E 003°48'0 0.4
2014-Apr-10 17:33N 41°41' E 003°47'0 0.3
2014-Apr-10 16:34N 41°42' E 003°47'1 0.8
2014-Apr-10 15:33N 41°42' E 003°48'1 0.9
2014-Apr-10 14:33N 41°43' E 003°49'1 1.5
2014-Apr-10 13:33N 41°44' E 003°50'2 1.6
2014-Apr-10 12:33N 41°45' E 003°51'2 1.9
2014-Apr-10 11:31N 41°47' E 003°52'9 9.4
2014-Apr-10 10:33N 41°55' E 003°59'1313.0
2014-Apr-10 09:33N 42°06' E 004°07'1713.1
2014-Apr-10 08:17N 42°20' E 004°19'1114.4
2014-Apr-10 07:32N 42°29' E 004°27'1313.6
2014-Apr-10 06:33N 42°41' E 004°36'1414.3
2014-Apr-10 05:32N 42°54' E 004°46'1313.1
2014-Apr-10 04:32N 43°05' E 004°55'1111.8
2014-Apr-10 03:34N 43°16' E 004°60'10 9.9
2014-Apr-10 02:34N 43°24' E 004°52'1 1.3
2014-Apr-10 01:28N 43°25' E 004°51'0 0.0
2014-Apr-10 00:31N 43°25' E 004°51'0 0.0
2014-Apr-09 23:31N 43°25' E 004°51'0 0.0
2014-Apr-09 22:31N 43°25' E 004°51'0 0.0
2014-Apr-09 21:28N 43°25' E 004°51'0 0.0
2014-Apr-09 20:30N 43°25' E 004°51'0 0.0
2014-Apr-09 19:31N 43°25' E 004°51'0 0.0
2014-Apr-09 18:28N 43°25' E 004°51'0 0.0
2014-Apr-09 17:31N 43°25' E 004°51'0 0.0
2014-Apr-09 16:31N 43°25' E 004°51'0 0.0
2014-Apr-09 15:31N 43°25' E 004°51'0 0.0
2014-Apr-09 14:31N 43°25' E 004°51'0 0.0
2014-Apr-09 13:28N 43°25' E 004°51'0 0.0
2014-Apr-09 12:31N 43°25' E 004°51'0 0.0
2014-Apr-09 11:28N 43°25' E 004°51'0 0.0
2014-Apr-09 10:31N 43°25' E 004°51'0 0.0
2014-Apr-09 09:31N 43°25' E 004°51'0 0.0
2014-Apr-09 08:28N 43°25' E 004°51'0 0.0
2014-Apr-09 07:31N 43°25' E 004°51'0 0.0
2014-Apr-09 06:31N 43°25' E 004°51'0 0.0
2014-Apr-09 05:31N 43°25' E 004°51'0 0.0
2014-Apr-09 04:31N 43°25' E 004°51'0 0.0
2014-Apr-09 03:31N 43°25' E 004°51'0 0.0
2014-Apr-09 02:28N 43°25' E 004°51'0 0.0
2014-Apr-09 01:31N 43°25' E 004°51'0 0.0
2014-Apr-09 00:31N 43°25' E 004°51'0 0.0
2014-Apr-08 23:31N 43°25' E 004°51'0 0.0
2014-Apr-08 22:31N 43°25' E 004°51'0 0.0
2014-Apr-08 21:28N 43°25' E 004°51'0 0.0
2014-Apr-08 20:31N 43°25' E 004°51'2 1.8
2014-Apr-08 19:33N 43°24' E 004°53'9 9.1
2014-Apr-08 18:33N 43°17' E 005°00'1010.0
2014-Apr-08 17:33N 43°08' E 005°06'1312.8
2014-Apr-08 16:33N 42°56' E 005°14'1312.9
2014-Apr-08 15:33N 42°45' E 005°22'1 0.1
2014-Apr-08 06:30N 42°46' E 005°22'65 9.3
2014-Apr-07 23:29N 42°47' E 006°51'8 9.0
2014-Apr-07 22:33N 42°49' E 007°02'9 8.8
2014-Apr-07 21:33N 42°54' E 007°12'9 9.4
2014-Apr-07 20:33N 42°60' E 007°22'8 8.5
2014-Apr-07 19:33N 43°07' E 007°27'15 7.5
2014-Apr-07 17:33N 43°22' E 007°32'8 8.4
2014-Apr-07 16:33N 43°28' E 007°40'7 7.3
2014-Apr-07 15:33N 43°32' E 007°48'7 7.4
2014-Apr-07 14:33N 43°36' E 007°57'8 8.2
2014-Apr-07 13:33N 43°41' E 008°06'9 8.7
2014-Apr-07 12:33N 43°47' E 008°15'2322.5
2014-Apr-07 11:33N 44°03' E 008°36'1313.4
2014-Apr-07 10:33N 44°13' E 008°49'1111.5
2014-Apr-07 09:34N 44°23' E 008°56'1 1.4
2014-Apr-07 08:33N 44°24' E 008°55'0 0.0
2014-Apr-07 07:33N 44°24' E 008°55'0 0.0
2014-Apr-07 06:30N 44°24' E 008°55'0 0.0
2014-Apr-07 05:33N 44°24' E 008°55'0 0.0
2014-Apr-07 04:33N 44°24' E 008°55'0 0.0
2014-Apr-07 03:30N 44°24' E 008°55'0 0.0
2014-Apr-07 02:33N 44°24' E 008°55'0 0.0
2014-Apr-07 01:33N 44°24' E 008°55'0 0.0
2014-Apr-07 00:33N 44°24' E 008°55'0 0.0
2014-Apr-06 23:33N 44°24' E 008°55'0 0.0
2014-Apr-06 22:30N 44°24' E 008°55'0 0.0
2014-Apr-06 21:30N 44°24' E 008°55'0 0.0
2014-Apr-06 20:30N 44°24' E 008°55'0 0.0
2014-Apr-06 19:30N 44°24' E 008°55'0 0.0
2014-Apr-06 18:30N 44°24' E 008°55'0 0.0
2014-Apr-06 17:30N 44°24' E 008°55'0 0.0
2014-Apr-06 16:30N 44°24' E 008°55'0 0.0
2014-Apr-06 15:30N 44°24' E 008°55'0 0.0
2014-Apr-06 14:27N 44°24' E 008°55'0 0.0
2014-Apr-06 13:30N 44°24' E 008°55'0 0.0
2014-Apr-06 12:30N 44°24' E 008°55'0 0.0
2014-Apr-06 11:30N 44°24' E 008°55'0 0.0
2014-Apr-06 10:30N 44°24' E 008°55'0 0.0
2014-Apr-06 09:30N 44°24' E 008°55'0 0.0
2014-Apr-06 08:33N 44°24' E 008°55'0 0.0
2014-Apr-06 07:30N 44°24' E 008°55'0 0.0
2014-Apr-06 06:33N 44°24' E 008°55'0 0.0
2014-Apr-06 05:33N 44°24' E 008°55'0 0.0
2014-Apr-06 04:30N 44°24' E 008°55'0 0.0
2014-Apr-06 03:33N 44°24' E 008°55'4 4.0
2014-Apr-06 02:34N 44°21' E 008°58'6 6.2
2014-Apr-06 01:34N 44°16' E 009°02'8 7.8
2014-Apr-06 00:34N 44°10' E 009°10'8 7.6
2014-Apr-05 23:34N 44°06' E 009°19'8 7.6
2014-Apr-05 22:33N 44°01' E 009°27'8 7.6
2014-Apr-05 21:34N 43°56' E 009°35'7 6.5
2014-Apr-05 20:33N 43°56' E 009°44'7 6.8
2014-Apr-05 19:34N 43°59' E 009°52'7 7.4
2014-Apr-05 18:34N 44°06' E 009°51'0 0.1
2014-Apr-05 17:31N 44°06' E 009°51'0 0.0
2014-Apr-05 16:31N 44°06' E 009°51'0 0.0
2014-Apr-05 15:31N 44°06' E 009°51'0 0.0
2014-Apr-05 14:31N 44°06' E 009°51'0 0.0
2014-Apr-05 13:31N 44°06' E 009°51'0 0.0
2014-Apr-05 12:31N 44°06' E 009°51'0 0.0
2014-Apr-05 11:31N 44°06' E 009°51'0 0.0
2014-Apr-05 10:28N 44°06' E 009°51'0 0.0
2014-Apr-05 09:31N 44°06' E 009°51'0 0.0
2014-Apr-05 08:31N 44°06' E 009°51'0 0.0
2014-Apr-05 07:31N 44°06' E 009°51'0 0.0
2014-Apr-05 06:31N 44°06' E 009°51'0 0.0
2014-Apr-05 05:31N 44°06' E 009°51'0 0.0
2014-Apr-05 04:31N 44°06' E 009°51'0 0.0
2014-Apr-05 03:31N 44°06' E 009°51'0 0.0
2014-Apr-05 02:31N 44°06' E 009°51'0 0.0
2014-Apr-05 01:31N 44°06' E 009°51'0 0.0
2014-Apr-05 00:31N 44°06' E 009°51'0 0.0
2014-Apr-04 23:31N 44°06' E 009°51'0 0.0
2014-Apr-04 22:31N 44°06' E 009°51'0 0.0
2014-Apr-04 21:31N 44°06' E 009°51'  

Dump ship's entire track history

sailing weather and tide predictions

Jazan — HZZH — position and weather